GW3283 Weather Reports


Display with metric or nautical units.
time (UTC)temp
F
wind
direction
speed
MPH
gust
MPH
rain 1hr
in
rain 24hr
in
rain mn
in
humidity
%
barometer
mb
20260510081521 62 83 0.0 0.0 0.00 0.00 0.00 58 1008.6
20260510080036 63 83 0.0 0.0 0.00 0.00 0.00 58 1008.5
20260510074507 63 83 0.0 0.0 0.00 0.00 0.00 52 1008.5
20260510073050 63 83 0.0 0.0 0.00 0.00 0.00 46 1008.3
20260510071522 63 83 0.0 0.0 0.00 0.00 0.00 66 1008.4
20260510070049 64 83 0.0 1.0 0.00 0.00 0.00 68 1008.7
20260510064515 65 83 0.0 0.0 0.00 0.00 0.00 68 1008.3
20260510063037 65 83 0.0 0.0 0.00 0.00 0.00 65 1008.3
20260510061511 65 83 0.0 1.0 0.00 0.00 0.00 69 1008.5
20260510060035 65 83 0.0 1.0 0.00 0.00 0.00 68 1008.6
20260510054547 65 83 1.0 2.0 0.00 0.00 0.00 70 1008.5
20260510053006 65 83 0.0 1.0 0.00 0.00 0.00 73 1008.3
20260510051541 65 83 0.0 0.0 0.00 0.00 0.00 74 1008.2
20260510050057 66 83 0.0 1.0 0.00 0.00 0.00 75 1008.1
20260510044527 67 83 0.0 2.0 0.00 0.00 0.00 74 1008.0
20260510043100 68 83 1.0 4.0 0.00 0.00 0.00 73 1007.9
20260510041534 68 84 0.0 3.0 0.00 0.00 0.00 73 1007.8
20260510040048 68 80 1.0 3.0 0.00 0.00 0.00 72 1007.8
20260510034515 68 79 1.0 3.0 0.00 0.00 0.00 72 1007.8
20260510033034 68 78 1.0 4.0 0.00 0.00 0.00 71 1007.8
20260510031606 68 76 1.0 3.0 0.00 0.00 0.00 70 1007.6
20260510030038 69 76 0.0 2.0 0.00 0.00 0.00 70 1007.4
20260510024555 70 76 0.0 2.0 0.00 0.00 0.00 69 1007.2
20260510023021 70 76 2.0 4.0 0.00 0.00 0.00 67 1007.0
20260510021543 71 76 0.0 2.0 0.00 0.00 0.00 66 1006.9
20260510020016 72 76 0.0 4.0 0.00 0.00 0.00 65 1006.8
20260510014536 72 77 1.0 7.0 0.00 0.00 0.00 64 1006.6
20260510013004 73 86 1.0 4.0 0.00 0.00 0.00 63 1006.4
20260510011527 73 86 1.0 4.0 0.00 0.00 0.00 63 1006.3
20260510010009 74 86 0.0 2.0 0.00 0.00 0.00 62 1006.1
20260510004540 75 86 0.0 2.0 0.00 0.00 0.00 61 1006.0
20260510003019 76 86 0.0 1.0 0.00 0.00 0.00 61 1005.9
20260510001548 77 86 0.0 2.0 0.00 0.00 0.00 59 1005.7
20260510000012 78 86 2.0 3.0 0.00 0.00 0.00 56 1005.7
20260509234539 78 86 1.0 4.0 0.00 0.00 0.00 55 1005.6
20260509233004 79 86 1.0 4.0 0.00 0.00 0.00 56 1005.5
20260509231536 79 87 1.0 6.0 0.00 0.00 0.00 56 1005.4
20260509230012 80 110 1.0 4.0 0.00 0.00 0.00 54 1005.3
20260509224554 80 123 1.0 5.0 0.00 0.00 0.00 50 1005.2
20260509223020 80 107 1.0 4.0 0.00 0.00 0.00 45 1005.2
20260509221538 81 74 0.0 5.0 0.00 0.00 0.00 44 1005.1
20260509220013 81 119 1.0 4.0 0.00 0.00 0.00 44 1004.9
20260509214534 81 98 1.0 3.0 0.00 0.00 0.00 46 1004.9
20260509213004 81 96 1.0 6.0 0.00 0.00 0.00 43 1004.9
20260509211522 81 173 1.0 4.0 0.00 0.00 0.00 41 1005.1
20260509210105 81 121 1.0 4.0 0.00 0.00 0.00 43 1005.1
20260509204524 81 94 2.0 5.0 0.00 0.00 0.00 42 1005.4
20260509203056 81 98 0.0 6.0 0.00 0.00 0.00 43 1005.5
20260509201532 81 146 1.0 6.0 0.00 0.00 0.00 45 1005.8
20260509200004 80 91 2.0 7.0 0.00 0.00 0.00 46 1006.0
20260509194532 80 182 4.0 6.0 0.00 0.00 0.00 44 1006.1
20260509193059 81 80 2.0 6.0 0.00 0.00 0.00 48 1006.0
20260509191526 82 131 3.0 7.0 0.00 0.00 0.00 50 1006.0
20260509190055 83 113 2.0 4.0 0.00 0.00 0.00 46 1006.2
20260509184515 83 334 1.0 5.0 0.00 0.00 0.00 47 1006.2
20260509183056 84 82 2.0 6.0 0.00 0.00 0.00 48 1006.2
20260509181515 84 126 2.0 5.0 0.00 0.00 0.00 47 1006.5
20260509180035 84 72 2.0 4.0 0.00 0.00 0.00 52 1006.4
20260509174556 84 166 0.0 5.0 0.00 0.00 0.00 49 1006.6
20260509173015 83 92 1.0 4.0 0.00 0.00 0.00 56 1006.7
20260509171540 82 101 1.0 5.0 0.00 0.00 0.00 53 1006.8
20260509170010 83 49 1.0 4.0 0.00 0.00 0.00 58 1006.8
20260509164527 83 71 0.0 4.0 0.00 0.00 0.00 57 1006.7
20260509163003 82 329 2.0 8.0 0.00 0.00 0.00 62 1006.6
20260509161535 80 332 1.0 10.0 0.00 0.00 0.00 64 1006.7
20260509160100 80 325 4.0 9.0 0.00 0.00 0.00 68 1006.6
20260509154528 79 324 0.0 6.0 0.00 0.00 0.00 70 1006.6
20260509153059 77 234 0.0 6.0 0.00 0.00 0.00 68 1006.6
20260509151526 76 320 2.0 4.0 0.00 0.00 0.00 71 1006.6
20260509150054 75 329 2.0 8.0 0.00 0.00 0.00 73 1006.7
20260509144509 73 295 1.0 4.0 0.00 0.00 0.00 72 1006.9
20260509143028 71 211 1.0 3.0 0.00 0.00 0.00 71 1007.1
20260509141501 70 272 0.0 3.0 0.00 0.00 0.00 63 1007.1
20260509140029 68 269 1.0 3.0 0.00 0.00 0.00 59 1007.1
20260509134548 67 272 0.0 4.0 0.00 0.00 0.00 36 1007.1
20260509133003 66 234 0.0 3.0 0.00 0.00 0.00 6 1007.0
20260509131523 64 217 0.0 2.0 0.00 0.00 0.00 1 1007.0
20260509130044 62 121 0.0 1.0 0.00 0.00 0.00 1 1006.9
20260509124511 60 121 0.0 2.0 0.00 0.00 0.00 1 1006.8
20260509123033 58 121 0.0 1.0 0.00 0.00 0.00 1 1006.6
20260509121556 58 121 0.0 2.0 0.00 0.00 0.00 4 1006.4
20260509120019 57 121 0.0 1.0 0.00 0.00 0.00 12 1006.3
20260509114538 57 121 0.0 0.0 0.00 0.00 0.00 18 1006.0
20260509113119 57 121 0.0 0.0 0.00 0.00 0.00 21 1005.7
20260509111532 58 241 0.0 0.0 0.00 0.00 0.00 24 1005.6
20260509110033 58 241 0.0 0.0 0.00 0.00 0.00 25 1005.4
20260509104516 58 241 0.0 0.0 0.00 0.00 0.00 29 1005.1
20260509103023 59 241 0.0 0.0 0.00 0.00 0.00 25 1005.1
20260509101548 59 241 0.0 0.0 0.00 0.00 0.00 27 1005.0
20260509100032 60 241 0.0 0.0 0.00 0.00 0.00 19 1005.0
20260509094552 60 241 0.0 1.0 0.00 0.00 0.00 14 1005.0
20260509093016 60 241 0.0 1.0 0.00 0.00 0.00 14 1005.2
20260509091551 61 241 0.0 1.0 0.00 0.00 0.00 15 1005.3
20260509090009 61 241 0.0 0.0 0.00 0.00 0.00 18 1005.3
20260509084527 60 241 0.0 2.0 0.00 0.00 0.00 20 1005.2
20260509083051 60 241 0.0 1.0 0.00 0.00 0.00 21 1005.3